Hauptseite
METAR-TAF:

METAR-TAF

Flughäfen :

Épinal, Frankreich

Flughafen Epinal-Mirecourt

Breite: 48-19-31N, Länge: 6-04-00E, Höhe: 330 m

Beobachtung

Neuester Wetterbericht von vor 38 Minuten, um 07:30 UTC
Wind 5 kt aus Nord/Nordost
Temperatur 7°C
Luftfeuchtigkeit 93%
Luftdruck 1021 hPa
Sichtweite: 8000 m
Durchbrochene Bewölkung in der Höhe von 3500 ft
Durchbrochene Bewölkung in der Höhe von 20000 ft

METAR: LFSG 240730Z AUTO 02005KT 8000 BKN035 BKN200 07/06 Q1021

Zeit: 09:08 (08:08 UTC)


TAF: fehlend

Wetterbeobachtungen und Prognosen von mehr als 4000 Flughäfen (METAR und TAF Bericht).

Die verfügbaren Stationen werden durch gelbe und rote Markierungen auf der Karte dargestellt.

Führen Sie die Maus auf sie, um den Namen der Station zu sehen.

Darauf klicken, um die Beobachtung von Wetterbeobachtungen und Prognosen zu sehen.

Um die Karte zu ändern : klicken Sie auf den grünen Tasten mit einem schwarzen Kreuz Zum Vergrößern, auf den grünen Button mit einem Gedankenstrich zu verkleinern, oder auf die grünen Pfeile für benachbarte Karten.


METAR-TAF: